DW7857 Weather Reports


Display with metric or nautical units.
time (UTC)temp
F
wind
direction
speed
MPH
gust
MPH
rain 1hr
in
rain 24hr
in
rain mn
in
humidity
%
barometer
mb
20221202091117 31 0 0.0 0.0 0.00 0.00 0.00 96 1017.1
20221202090003 33 0 0.0 0.0 0.00 0.00 0.00 97 1017.1
20221202085403 33 0 0.0 0.0 0.00 0.00 0.00 97 1017.1
20221202084713 29 0 0.0 0.0 0.00 0.00 0.00 96 1017.0
20221202083603 32 0 0.0 0.0 0.00 0.00 0.00 97 1017.0
20221202082703 32 0 0.0 0.0 0.00 0.00 0.00 97 1016.7
20221202081803 32 0 0.0 0.0 0.00 0.00 0.00 97 1016.6
20221202080903 32 0 0.0 0.0 0.00 0.00 0.00 97 1016.8
20221202080003 32 0 0.0 0.0 0.00 0.00 0.00 97 1016.7
20221202075403 32 0 0.0 0.0 0.00 0.00 0.00 97 1016.6
20221202074503 32 0 0.0 0.0 0.00 0.00 0.00 97 1016.9
20221202073603 32 0 0.0 0.0 0.00 0.00 0.00 97 1016.4
20221202072703 32 0 0.0 0.0 0.00 0.00 0.00 97 1016.4
20221202071803 32 0 0.0 0.0 0.00 0.00 0.00 97 1016.7
20221202071113 32 0 0.0 0.0 0.00 0.00 0.00 97 1016.4
20221202070004 32 0 0.0 0.0 0.00 0.00 0.00 97 1016.4
20221202065617 32 0 0.0 0.0 0.00 0.00 0.00 97 1016.5
20221202064503 32 337 0.0 1.0 0.00 0.00 0.00 97 1016.5
20221202063603 32 0 0.0 0.0 0.00 0.00 0.00 97 1016.6
20221202062703 32 0 0.0 0.0 0.00 0.00 0.00 97 1016.7
20221202061803 32 40 0.0 2.0 0.00 0.00 0.00 97 1016.6
20221202060904 32 50 1.0 3.0 0.00 0.00 0.00 97 1016.7
20221202060003 32 31 3.0 5.0 0.00 0.00 0.00 97 1016.5
20221202055403 32 28 3.0 5.0 0.00 0.00 0.00 97 1016.9
20221202054503 32 353 4.0 6.0 0.00 0.00 0.00 97 1016.7
20221202053603 32 15 4.0 5.0 0.00 0.00 0.00 97 1016.6
20221202052703 32 17 4.0 5.0 0.00 0.00 0.00 97 1017.0
20221202051803 32 33 4.0 5.0 0.00 0.00 0.00 97 1016.9
20221202051114 32 44 4.0 5.0 0.00 0.00 0.00 97 1016.8
20221202050217 32 21 4.0 4.0 0.00 0.00 0.00 97 1016.9
20221202045613 32 354 4.0 5.0 0.00 0.00 0.00 97 1017.0
20221202044503 33 43 4.0 5.0 0.00 0.00 0.00 97 1017.0
20221202043603 33 356 3.0 4.0 0.00 0.00 0.00 97 1017.0
20221202042703 33 3 4.0 5.0 0.00 0.00 0.00 97 1017.1
20221202041803 33 352 4.0 4.0 0.00 0.00 0.00 97 1017.2
20221202040903 33 12 3.0 5.0 0.00 0.00 0.00 97 1017.2
20221202040004 33 331 4.0 5.0 0.00 0.00 0.00 97 1017.2
20221202035614 33 355 3.0 5.0 0.00 0.00 0.00 97 1017.1
20221202034503 34 15 3.0 5.0 0.00 0.00 0.00 100 1017.2
20221202033814 34 325 4.0 5.0 0.00 0.00 0.00 100 1017.4
20221202032703 34 40 4.0 4.0 0.00 0.00 0.00 100 1017.5
20221202031803 34 8 3.0 4.0 0.00 0.00 0.00 100 1017.4
20221202030903 34 325 3.0 5.0 0.00 0.00 0.00 100 1017.7
20221202030003 34 341 3.0 4.0 0.00 0.00 0.00 100 1017.7
20221202025403 34 30 3.0 5.0 0.00 0.00 0.00 100 1017.7
20221202024503 34 52 3.0 4.0 0.00 0.00 0.00 100 1018.1
20221202023603 34 7 3.0 3.0 0.00 0.00 0.00 100 1017.6
20221202022703 34 14 3.0 5.0 0.00 0.00 0.00 100 1017.6
20221202021803 35 25 3.0 6.0 0.00 0.00 0.00 100 1017.8
20221202021116 35 48 4.0 7.0 0.00 0.00 0.00 100 1017.8
20221202020214 35 25 4.0 4.0 0.00 0.00 0.00 100 1018.0
20221202015403 35 22 4.0 4.0 0.00 0.00 0.00 100 1017.9
20221202014503 35 54 5.0 7.0 0.00 0.00 0.00 100 1017.9
20221202013815 35 40 5.0 7.0 0.00 0.00 0.00 100 1018.1
20221202012703 35 21 4.0 5.0 0.00 0.00 0.00 100 1017.9
20221202011803 35 37 3.0 4.0 0.00 0.00 0.00 100 1017.9
20221202010903 35 41 4.0 5.0 0.00 0.00 0.00 100 1018.1
20221202010003 35 51 3.0 5.0 0.00 0.00 0.00 100 1018.3
20221202005403 35 23 3.0 4.0 0.00 0.00 0.00 100 1018.1
20221202004713 35 56 4.0 5.0 0.00 0.00 0.00 100 1018.2
20221202003603 35 45 3.0 4.0 0.00 0.00 0.00 100 1018.4
20221202002703 35 54 3.0 4.0 0.00 0.00 0.00 100 1018.3
20221202001803 35 29 3.0 4.0 0.00 0.00 0.00 100 1018.5
20221202000903 35 357 3.0 4.0 0.00 0.00 0.00 100 1018.3
20221202000004 35 4 3.0 4.0 0.00 0.00 0.00 100 1018.7
20221201235403 35 340 3.0 4.0 0.00 0.00 0.00 100 1018.6
20221201234503 35 342 3.0 4.0 0.00 0.00 0.00 100 1018.7
20221201233603 35 25 3.0 4.0 0.00 0.00 0.00 100 1018.8
20221201232703 35 34 3.0 5.0 0.00 0.00 0.00 100 1018.9
20221201231803 35 44 3.0 4.0 0.00 0.00 0.00 100 1018.9
20221201231113 35 360 2.0 3.0 0.00 0.00 0.00 100 1018.7
20221201230003 35 316 3.0 4.0 0.00 0.00 0.00 100 1018.6
20221201225403 35 316 2.0 3.0 0.00 0.00 0.00 100 1018.9
20221201224503 36 330 2.0 4.0 0.00 0.00 0.00 100 1019.1
20221201223603 35 45 1.0 2.0 0.00 0.00 0.00 100 1019.0
20221201222914 35 49 2.0 4.0 0.00 0.00 0.00 100 1019.2
20221201221803 36 344 2.0 3.0 0.00 0.00 0.00 100 1019.0
20221201221114 36 13 2.0 3.0 0.00 0.00 0.00 100 1019.1
20221201220003 36 335 3.0 4.0 0.00 0.00 0.00 100 1019.1
20221201215613 36 12 3.0 4.0 0.00 0.00 0.00 100 1019.0
20221201214503 36 43 3.0 4.0 0.00 0.00 0.00 100 1019.2
20221201213603 36 38 3.0 3.0 0.00 0.00 0.00 100 1019.3
20221201212703 36 35 2.0 3.0 0.00 0.00 0.00 100 1019.2
20221201211803 36 1 3.0 4.0 0.00 0.00 0.00 100 1019.3
20221201211114 36 1 2.0 4.0 0.00 0.00 0.00 100 1019.3
20221201210217 36 51 3.0 4.0 0.00 0.00 0.00 100 1019.3
20221201205613 36 31 3.0 4.0 0.00 0.00 0.00 100 1019.3
20221201204503 36 42 2.0 3.0 0.00 0.00 0.00 100 1019.2
20221201203603 36 20 2.0 3.0 0.00 0.00 0.00 100 1019.1
20221201202915 36 357 2.0 3.0 0.00 0.00 0.00 100 1019.2
20221201201803 36 53 2.0 2.0 0.00 0.00 0.00 100 1019.2
20221201200903 36 90 2.0 2.0 0.00 0.00 0.00 100 1019.2
20221201200003 36 90 1.0 2.0 0.00 0.00 0.00 100 1019.3
20221201195403 36 90 2.0 3.0 0.00 0.00 0.00 100 1019.3
20221201194503 36 81 1.0 2.0 0.00 0.00 0.00 100 1019.1
20221201193814 36 48 2.0 3.0 0.00 0.00 0.00 100 1019.2
20221201192916 36 52 2.0 4.0 0.00 0.00 0.00 100 1019.2
20221201191803 36 342 2.0 3.0 0.00 0.00 0.00 100 1019.3
20221201190903 36 344 3.0 3.0 0.00 0.00 0.00 100 1019.6
20221201190213 36 339 3.0 3.0 0.00 0.00 0.00 100 1019.4
20221201185403 36 5 3.0 4.0 0.00 0.00 0.00 100 1019.5
20221201184717 36 345 3.0 4.0 0.00 0.00 0.00 100 1019.5
20221201183603 36 51 3.0 4.0 0.00 0.00 0.00 100 1019.5
20221201182703 36 49 3.0 4.0 0.00 0.00 0.00 100 1019.5
20221201181803 36 42 3.0 4.0 0.00 0.00 0.00 100 1019.5
20221201180903 36 25 4.0 5.0 0.00 0.00 0.00 100 1019.6
20221201180003 36 46 4.0 5.0 0.00 0.00 0.00 100 1019.5
20221201175403 37 352 3.0 4.0 0.00 0.00 0.00 100 1019.6
20221201174503 37 56 3.0 4.0 0.00 0.00 0.00 100 1019.4
20221201173815 37 66 3.0 4.0 0.00 0.00 0.00 100 1019.3
20221201172703 37 27 3.0 4.0 0.00 0.00 0.00 100 1019.2
20221201172014 37 43 3.0 4.0 0.00 0.00 0.00 100 1019.3
20221201170903 37 14 3.0 4.0 0.00 0.00 0.00 100 1019.1
20221201170003 37 4 3.0 4.0 0.00 0.00 0.00 100 1019.2
20221201165403 37 43 2.0 3.0 0.00 0.00 0.00 100 1019.0
20221201164503 37 33 2.0 3.0 0.00 0.00 0.00 100 1019.0
20221201163603 37 23 2.0 3.0 0.00 0.00 0.00 100 1019.1
20221201162703 37 30 3.0 4.0 0.00 0.00 0.00 100 1019.2
20221201161803 38 16 2.0 4.0 0.00 0.00 0.00 100 1019.1
20221201160903 38 35 2.0 3.0 0.00 0.00 0.00 100 1019.1
20221201160003 38 6 3.0 4.0 0.00 0.00 0.00 100 1018.9
20221201155403 38 360 3.0 3.0 0.00 0.00 0.00 100 1019.0
20221201154504 38 41 3.0 4.0 0.00 0.00 0.00 100 1018.9
20221201153603 38 18 4.0 4.0 0.00 0.00 0.00 100 1019.0
20221201152703 38 1 3.0 4.0 0.00 0.00 0.00 100 1019.1
20221201151803 38 14 3.0 4.0 0.00 0.00 0.00 100 1018.8
20221201150903 38 52 3.0 4.0 0.00 0.00 0.00 100 1018.9
20221201150003 39 41 3.0 5.0 0.00 0.00 0.00 100 1018.9
20221201145403 39 42 3.0 5.0 0.00 0.00 0.00 100 1019.0
20221201144503 39 28 2.0 3.0 0.00 0.00 0.00 100 1018.9
20221201143603 39 17 3.0 4.0 0.00 0.00 0.00 100 1018.8
20221201142703 39 33 3.0 4.0 0.00 0.00 0.00 100 1019.1
20221201142016 39 329 3.0 4.0 0.00 0.00 0.00 100 1019.0
20221201140903 39 350 3.0 5.0 0.00 0.00 0.00 100 1019.1
20221201140003 39 342 4.0 4.0 0.00 0.00 0.00 100 1019.1
20221201135612 39 347 3.0 4.0 0.00 0.00 0.00 100 1019.2
20221201134503 39 17 4.0 5.0 0.00 0.00 0.00 100 1019.2
20221201133817 39 330 4.0 5.0 0.00 0.00 0.00 100 1019.1
20221201132915 40 333 4.0 4.0 0.00 0.00 0.00 100 1019.6
20221201131803 39 2 3.0 3.0 0.00 0.00 0.00 100 1019.4
20221201130903 39 334 3.0 4.0 0.00 0.00 0.00 100 1019.4
20221201130003 39 55 4.0 4.0 0.00 0.00 0.00 100 1019.5
20221201125403 39 41 4.0 4.0 0.00 0.00 0.00 100 1019.6
20221201124503 39 34 4.0 4.0 0.00 0.00 0.00 100 1019.7
20221201123813 39 43 4.0 4.0 0.00 0.00 0.00 100 1019.8
20221201122704 39 19 4.0 4.0 0.00 0.00 0.00 100 1019.7
20221201121803 39 27 3.0 4.0 0.00 0.00 0.00 100 1019.9
20221201120903 39 62 4.0 4.0 0.00 0.00 0.00 100 1020.1
20221201120217 39 50 4.0 4.0 0.00 0.00 0.00 100 1019.8
20221201115403 38 39 3.0 4.0 0.00 0.00 0.00 100 1020.1
20221201114503 39 19 3.0 4.0 0.00 0.00 0.00 100 1020.1
20221201113603 39 39 2.0 4.0 0.00 0.00 0.00 100 1020.2
20221201112703 39 323 3.0 4.0 0.00 0.00 0.00 100 1020.3
20221201112013 38 346 3.0 4.0 0.00 0.00 0.00 100 1020.3
20221201111116 38 53 3.0 3.0 0.00 0.00 0.00 100 1020.5
20221201110003 38 360 3.0 4.0 0.00 0.00 0.00 100 1020.6
20221201105403 37 58 4.0 4.0 0.00 0.00 0.00 100 1020.4
20221201104504 38 350 3.0 4.0 0.00 0.00 0.00 100 1020.7
20221201103603 37 57 3.0 4.0 0.00 0.00 0.00 100 1020.6
20221201102703 37 69 3.0 4.0 0.00 0.00 0.00 100 1020.7
20221201101803 37 348 3.0 4.0 0.00 0.00 0.00 100 1020.6
20221201100903 37 30 3.0 4.0 0.00 0.00 0.00 100 1020.8
20221201100003 37 49 3.0 4.0 0.00 0.00 0.00 100 1021.0
20221201095403 36 51 4.0 5.0 0.00 0.00 0.00 100 1021.0
20221201094503 37 41 4.0 5.0 0.00 0.00 0.00 100 1020.8
20221201093603 37 42 4.0 4.0 0.00 0.00 0.00 100 1021.1
20221201092703 37 331 3.0 4.0 0.00 0.00 0.00 100 1020.9
20221201091803 37 18 4.0 4.0 0.00 0.00 0.00 100 1020.6